Rome, GA

1:38 AM EDT on October 21, 2019 (GMT -0400)
Russell

Weather History for KRMG - August, 2019

Change the Weather History Date:

Tuesday, August 20, 2019

  Actual Average Record
Temperature  
Mean Temperature 82 °F 78 °F  
Max Temperature 95 °F 89 °F 99 °F (2011)
Min Temperature 68 °F 68 °F 7 °F (1996)
Cooling Degree Days 16 13  
Month to date cooling degree days 346 284  
Year to date cooling degree days 1614 1228  
Since 1 June cooling degree days 1240 1060  
Growing Degree Days 32 (Base 50)    
Moisture  
Dew Point 68 °F    
Average Humidity 69    
Maximum Humidity 93    
Minimum Humidity 38    
Precipitation  
Precipitation T in 0.14 in 1.01 in (2004)
Month to date precipitation 3.04 2.72  
Year to date precipitation 39.80 34.01  
Sea Level Pressure  
Sea Level Pressure 30.06 in    
Wind  
Wind Speed 2 mph ()    
Max Wind Speed 15 mph    
Max Gust Speed 20 mph    
Visibility 9.2 miles    
Events Rain , Thunderstorm    
T = Trace of Precipitation, MM = Missing Value Source: Averaged Metar Reports

Daily Weather History Graph

Daily Weather History Graph

Search for Another Location

Airport or City:

Astronomy

Aug. 20, 2019 Rise Set
Actual Time 7:05 AM EDT 8:22 PM EDT
Civil Twilight 6:38 AM EDT 8:48 PM EDT
Nautical Twilight 6:07 AM EDT 9:19 PM EDT
Astronomical Twilight 5:34 AM EDT 9:52 PM EDT
Moon 11:22 PM EDT (8/20) 11:31 AM EDT (8/20)
Length of Visible Light 14h 09m
Length of Day
13h 17m
Waning Gibbous, 78% of the Moon is Illuminated
Aug 20
Waning Gibbous
Aug 23
Last Quarter
Aug 30
New
Sep 5
First Quarter
Sep 14
Full

Hourly Weather History & Observations

Time (EDT) Temp. Heat Index Dew Point Humidity Pressure Visibility Wind Dir Wind Speed Gust Speed Precip Events Conditions
12:53 AM 71.1 °F - 68.0 °F 90% 30.06 in 6.0 mi Calm Calm - N/A   Clear
1:53 AM 71.1 °F - 68.0 °F 90% 30.05 in 7.0 mi North 3.5 mph - N/A   Clear
2:53 AM 70.0 °F - 66.9 °F 90% 30.05 in 8.0 mi Calm Calm - N/A   Clear
3:53 AM 70.0 °F - 66.9 °F 90% 30.06 in 10.0 mi Calm Calm - N/A   Clear
4:53 AM 69.1 °F - 66.9 °F 93% 30.07 in 8.0 mi NNE 3.5 mph - N/A   Clear
5:53 AM 69.1 °F - 66.0 °F 90% 30.08 in 7.0 mi Calm Calm - N/A   Clear
6:53 AM 68.0 °F - 66.0 °F 93% 30.10 in 7.0 mi Calm Calm - N/A   Clear
7:53 AM 70.0 °F - 66.9 °F 90% 30.11 in 7.0 mi Calm Calm - N/A   Clear
8:53 AM 73.9 °F - 68.0 °F 82% 30.10 in 10.0 mi Calm Calm - N/A   Clear
9:53 AM 77.0 °F - 70.0 °F 79% 30.09 in 10.0 mi South 5.8 mph - N/A   Clear
10:53 AM 81.0 °F 84.4 °F 70.0 °F 69% 30.10 in 10.0 mi Calm Calm - N/A   Clear
11:53 AM 84.9 °F 90.1 °F 71.1 °F 63% 30.12 in 10.0 mi Calm Calm - N/A   Clear
12:53 PM 87.1 °F 92.8 °F 71.1 °F 59% 30.09 in 10.0 mi NE 5.8 mph - N/A   Clear
1:53 PM 90.0 °F 95.4 °F 70.0 °F 52% 30.07 in 10.0 mi Calm Calm - N/A   Clear
2:53 PM 93.0 °F 97.4 °F 68.0 °F 44% 30.04 in 10.0 mi Variable 3.5 mph - N/A   Clear
3:53 PM 93.0 °F 96.4 °F 66.9 °F 42% 30.01 in 10.0 mi ESE 3.5 mph - N/A   Clear
4:53 PM 95.0 °F 97.9 °F 66.0 °F 38% 29.99 in 10.0 mi Calm Calm - N/A   Clear
5:53 PM 93.9 °F 97.5 °F 66.9 °F 41% 29.98 in 10.0 mi ESE 5.8 mph - N/A   Clear
6:53 PM 93.0 °F 96.4 °F 66.9 °F 42% 29.99 in 10.0 mi South 3.5 mph - N/A   Clear
7:53 PM 90.0 °F 93.6 °F 68.0 °F 48% 30.01 in 10.0 mi South 3.5 mph - N/A   Mostly Cloudy
8:53 PM 84.0 °F 88.4 °F 70.0 °F 63% 30.02 in 10.0 mi Calm Calm - N/A   Clear
9:53 PM 84.9 °F 88.8 °F 69.1 °F 59% 30.03 in 10.0 mi SSW 9.2 mph - N/A   Overcast
10:08 PM 84.0 °F 87.8 °F 69.1 °F 61% 30.07 in 10.0 mi SW 9.2 mph 18.4 mph N/A Thunderstorm Mostly Cloudy
10:53 PM 82.0 °F 85.9 °F 70.0 °F 67% 30.07 in 10.0 mi WNW 9.2 mph - N/A Thunderstorm Scattered Clouds
11:25 PM 79.0 °F - 71.1 °F 77% 30.10 in 10.0 mi South 3.5 mph - N/A   Scattered Clouds
11:53 PM 78.1 °F - 72.0 °F 81% 30.09 in 9.0 mi West 6.9 mph - 0.00 in Rain Light Rain